Weather observations for the past three days for
Brunswick, Malcolm McKinnon Airport
Imperial (Metric)
Date Time (edt) Wind (mph) Vis. (mi.) Weather Sky Cond. Temperature (ºF) Relative Humidity Wind Chill (°F) Heat Index (°F) Pressure Precipitation (in)
Air Dwpt 6 hour altimeter (in) sea level (mb) 1 hr 3 hr 6 hr
Max. Min.
13 16:55 NE 15 10.00 Partly Cloudy SCT024 SCT031 84.2 77 79% 94 29.9 0.0
13 16:35 NE 12 G 18 10.00 Partly Cloudy SCT024 SCT032 86 77 75% 97 29.9 0.0
13 16:15 E 10 G 16 10.00 A Few Clouds FEW022 FEW028 87.8 77 70% 100 29.9 0.0
13 15:55 NE 9 10.00 A Few Clouds FEW022 FEW028 86 77 75% 97 29.9 0.0
13 15:35 NE 13 10.00 A Few Clouds FEW021 86 77 75% 97 29.9 0.0
13 15:15 NE 13 10.00 A Few Clouds FEW020 86 77 75% 97 29.91 0.0
13 14:55 NE 14 G 20 10.00 Fair CLR 86 77 75% 97 29.91 0.0
13 14:35 NE 13 G 23 10.00 Fair CLR 86 77 75% 97 29.91 0.0
13 14:15 NE 15 G 21 10.00 Partly Cloudy FEW020 SCT025 SCT032 87.8 77 70% 100 29.91 0.0
13 13:55 NE 14 G 23 10.00 Mostly Cloudy BKN022 BKN070 86 77 75% 97 29.92 0.0
13 13:35 NE 15 G 25 10.00 Mostly Cloudy SCT022 BKN030 BKN070 87.8 77 70% 100 29.91 0.0
13 13:15 NE 14 G 24 10.00 Partly Cloudy SCT024 SCT031 87.8 77 70% 100 29.92 0.0
13 12:55 NE 15 G 22 10.00 Partly Cloudy SCT023 87.8 77 70% 100 29.92 0.0
13 12:35 NE 15 G 23 10.00 A Few Clouds FEW023 87.8 77 70% 100 29.92 0.0
13 12:15 NE 15 10.00 A Few Clouds FEW025 FEW043 87.8 77 70% 100 29.92 0.0
13 11:55 NE 14 G 21 10.00 Partly Cloudy FEW026 SCT041 87.8 75.2 66% 98 29.92 0.0
13 11:15 NE 13 10.00 Partly Cloudy FEW028 SCT038 87.8 71.6 59% 94 29.92 0.0
13 10:55 NE 15 10.00 Partly Cloudy FEW028 SCT035 87.8 75.2 66% 98 29.92 0.0
13 10:35 NE 13 G 21 10.00 Partly Cloudy FEW026 SCT034 SCT070 87.8 75.2 66% 98 29.92 0.0
13 10:15 NE 9 G 21 10.00 Mostly Cloudy FEW025 SCT070 BKN080 86 77 75% 97 29.92 0.0
13 09:55 NE 13 G 21 10.00 Mostly Cloudy FEW026 SCT046 BKN070 86 77 75% 97 29.92 0.0
13 09:35 NE 12 G 17 10.00 Overcast SCT020 BKN029 OVC036 86 78.8 79% 99 29.92 0.0
13 09:15 N 9 10.00 Mostly Cloudy BKN019 84.2 78.8 84% 96 29.92 0.0
13 08:55 N 8 10.00 Partly Cloudy SCT018 SCT024 82.4 78.8 89% 92 29.91 0.0
13 08:35 N 8 10.00 Mostly Cloudy BKN019 BKN025 82.4 78.8 89% 92 29.9 0.0
13 08:15 N 5 10.00 NULL NULL 82.4 78.8 89% 92 29.9 0.0
13 07:55 N 6 0.00 NULL NULL 80.6 78.8 94% 88 29.9 0.0
13 07:35 Vrbl 5 G 12 10.00 A Few Clouds FEW016 80.6 78.8 94% 88 29.89 0.0
13 07:15 N 6 10.00 Partly Cloudy FEW015 FEW022 SCT027 80.6 78.8 94% 88 29.88 0.0
13 06:55 NE 6 10.00 Mostly Cloudy FEW015 SCT021 BKN033 80.6 78.8 94% 88 29.88 0.0
13 06:35 N 6 10.00 A Few Clouds FEW014 FEW035 78.8 77 94% 83 29.88 0.0
13 06:15 NE 7 10.00 Fair CLR 78.8 77 94% 83 29.87 0.0
13 05:55 NE 5 10.00 A Few Clouds FEW015 78.8 77 94% 83 29.87 0.0
13 05:35 NE 5 10.00 Fair CLR 78.8 77 94% 83 29.86 0.0
13 05:15 N 6 10.00 A Few Clouds FEW014 78.8 77 94% 83 29.86 0.0
13 04:55 N 5 10.00 Fair CLR 78.8 77 94% 83 29.86 0.0
13 04:35 NE 6 10.00 Fair CLR 80.6 77 89% 87 29.86 0.0
13 04:15 NE 6 10.00 Fair CLR 80.6 77 89% 87 29.86 0.0
13 03:55 NE 6 10.00 A Few Clouds FEW013 80.6 78.8 94% 88 29.87 0.0
13 03:35 NE 5 10.00 Fair CLR 80.6 77 89% 87 29.87 0.0
13 03:15 NE 7 10.00 Fair CLR 80.6 77 89% 87 29.87 0.0
13 02:55 NE 7 10.00 A Few Clouds FEW020 80.6 77 89% 87 29.88 0.0
13 02:35 NE 8 10.00 Mostly Cloudy SCT018 SCT022 BKN029 80.6 77 89% 87 29.88 0.0
13 02:15 NE 7 10.00 Mostly Cloudy BKN017 BKN023 BKN029 80.6 77 89% 87 29.89 0.0
13 01:55 NE 7 10.00 A Few Clouds FEW015 FEW021 80.6 77 89% 87 29.89 0.0
13 01:35 NE 8 10.00 Mostly Cloudy SCT017 BKN021 BKN026 80.6 77 89% 87 29.9 0.0
13 01:15 NE 9 10.00 Overcast OVC017 80.6 77 89% 87 29.91 0.0
13 00:55 NE 8 G 14 10.00 Mostly Cloudy BKN017 80.6 77 89% 87 29.92 0.0
13 00:35 NE 9 10.00 Mostly Cloudy BKN016 82.4 77 84% 91 29.91 0.0
13 00:15 E 10 G 17 10.00 Partly Cloudy SCT016 80.6 77 89% 87 29.91 0.0
12 23:55 NE 9 G 18 10.00 Mostly Cloudy BKN015 BKN021 80.6 77 89% 87 29.91 0.0
12 23:35 NE 14 10.00 Overcast BKN017 BKN022 OVC026 80.6 77 89% 87 29.91 0.0
12 23:15 E 12 G 18 10.00 Overcast BKN015 BKN021 OVC027 82.4 78.8 89% 92 29.91 0.0
12 22:55 E 10 G 17 10.00 Overcast SCT015 BKN024 OVC029 82.4 78.8 89% 92 29.92 0.0
12 22:35 E 12 G 18 10.00 Overcast BKN016 BKN021 OVC030 82.4 77 84% 91 29.92 0.0
12 22:15 NE 13 10.00 Overcast BKN016 OVC022 82.4 78.8 89% 92 29.92 0.0
12 21:55 NE 8 10.00 Mostly Cloudy BKN015 BKN045 82.4 78.8 89% 92 29.92 0.0
12 21:35 NE 13 10.00 Mostly Cloudy BKN015 BKN045 80.6 77 89% 87 29.92 0.0
12 21:15 NE 10 G 17 10.00 Mostly Cloudy BKN015 BKN022 BKN046 82.4 78.8 89% 92 29.92 0.0
12 20:55 NE 12 G 17 10.00 Mostly Cloudy SCT015 BKN020 82.4 77 84% 91 29.92 0.0
12 20:35 E 10 G 18 10.00 Mostly Cloudy BKN017 BKN022 82.4 77 84% 91 29.92 0.0
12 20:15 E 14 10.00 Partly Cloudy SCT017 82.4 77 84% 91 29.92 0.0
12 19:55 NE 13 10.00 A Few Clouds FEW018 82.4 77 84% 91 29.92 0.0
12 19:35 NE 13 10.00 A Few Clouds FEW017 82.4 77 84% 91 29.92 0.0
12 19:15 E 13 G 20 10.00 Partly Cloudy SCT017 82.4 77 84% 91 29.92 0.0
12 18:55 NE 12 G 18 10.00 Partly Cloudy SCT016 84.2 77 79% 94 29.92 0.0
12 18:35 NE 12 G 18 10.00 A Few Clouds FEW017 84.2 78.8 84% 96 29.92 0.0
12 18:15 E 13 G 21 10.00 A Few Clouds FEW018 84.2 77 79% 94 29.92 0.0
12 17:55 E 10 G 18 10.00 Fair CLR 84.2 77 79% 94 29.92 0.0
12 17:35 NE 10 G 18 10.00 Fair CLR 86 77 75% 97 29.93 0.0
12 17:15 NE 13 10.00 Fair CLR 86 77 75% 97 29.93 0.0
12 16:55 E 9 G 17 10.00 Fair CLR 86 77 75% 97 29.93 0.0
12 16:35 E 13 G 18 10.00 Fair CLR 86 75.2 70% 95 29.94 0.0
12 16:15 E 12 G 18 10.00 Fair CLR 86 75.2 70% 95 29.94 0.0
12 15:55 E 14 10.00 Fair CLR 86 75.2 70% 95 29.94 0.0
12 15:35 E 15 G 23 10.00 Fair CLR 86 75.2 70% 95 29.94 0.0
12 15:15 E 14 G 23 10.00 Fair CLR 86 75.2 70% 95 29.95 0.0
12 14:55 NE 14 G 22 10.00 Fair CLR 86 73.4 66% 93 29.95 0.0
12 14:35 NE 14 10.00 Fair CLR 86 73.4 66% 93 29.95 0.0
12 14:15 NE 13 G 21 10.00 Fair CLR 86 75.2 70% 95 29.95 0.0
12 13:55 NE 13 G 21 10.00 Fair CLR 86 75.2 70% 95 29.95 0.0
12 13:35 NE 12 G 20 10.00 A Few Clouds FEW020 86 75.2 70% 95 29.96 0.0
12 13:15 NE 14 G 21 10.00 A Few Clouds FEW019 86 75.2 70% 95 29.95 0.0
12 12:55 NE 15 G 22 10.00 A Few Clouds FEW019 86 77 75% 97 29.95 0.0
12 12:35 E 14 G 20 10.00 A Few Clouds FEW019 86 77 75% 97 29.95 0.0
12 12:15 NE 12 10.00 A Few Clouds FEW018 86 77 75% 97 29.95 0.0
12 11:55 E 13 10.00 A Few Clouds FEW018 86 78.8 79% 99 29.95 0.0
12 11:35 NE 9 10.00 A Few Clouds FEW022 86 77 75% 97 29.95 0.0
12 11:15 NE 10 G 16 10.00 Partly Cloudy FEW015 FEW020 SCT026 84.2 77 79% 94 29.95 0.0
12 10:55 NE 12 10.00 Mostly Cloudy SCT015 BKN021 BKN028 84.2 78.8 84% 96 29.95 0.0
12 10:35 E 10 10.00 Mostly Cloudy SCT015 BKN021 BKN029 84.2 78.8 84% 96 29.94 0.0
12 10:15 NE 10 G 18 10.00 Mostly Cloudy SCT015 BKN021 84.2 78.8 84% 96 29.94 0.0
12 09:55 NE 13 10.00 Overcast BKN014 OVC020 84.2 78.8 84% 96 29.94 0.0
12 09:35 NE 12 10.00 Overcast BKN015 OVC020 82.4 78.8 89% 92 29.94 0.0
12 09:15 NE 9 10.00 Overcast OVC016 82.4 78.8 89% 92 29.93 0.0
12 08:55 E 9 10.00 Mostly Cloudy BKN016 BKN022 BKN028 82.4 78.8 89% 92 29.93 0.0
12 08:35 NE 7 10.00 Mostly Cloudy SCT014 BKN018 BKN024 82.4 78.8 89% 92 29.93 0.0
12 08:15 Vrbl 7 10.00 Mostly Cloudy BKN014 BKN019 BKN025 82.4 78.8 89% 92 29.93 0.0
12 07:55 E 7 10.00 Overcast BKN014 OVC019 80.6 78.8 94% 88 29.92 0.0
12 07:35 E 6 10.00 Mostly Cloudy BKN014 BKN018 80.6 78.8 94% 88 29.92 0.0
12 07:15 NE 7 10.00 Mostly Cloudy SCT012 BKN017 80.6 78.8 94% 88 29.91 0.0
12 06:55 NE 3 10.00 Partly Cloudy SCT012 78.8 78.8 100% 83 29.91 0.0
12 06:35 NE 5 10.00 Partly Cloudy SCT012 78.8 77 94% 83 29.9 0.0
12 06:15 NE 5 10.00 A Few Clouds FEW012 78.8 77 94% 83 29.9 0.0
12 05:55 NE 5 10.00 A Few Clouds FEW013 78.8 77 94% 83 29.89 0.0
12 05:15 E 6 10.00 Partly Cloudy SCT012 80.6 78.8 94% 88 29.89 0.0
12 04:55 E 6 10.00 Partly Cloudy SCT013 SCT060 80.6 78.8 94% 88 29.89 0.0
12 04:35 E 5 10.00 Mostly Cloudy BKN015 BKN060 80.6 78.8 94% 88 29.89 0.0
12 04:15 E 5 10.00 Mostly Cloudy BKN015 BKN060 80.6 77 89% 87 29.88 0.0
12 03:55 E 5 10.00 Overcast BKN015 OVC065 80.6 77 89% 87 29.88 0.0
12 03:35 E 3 10.00 Overcast SCT014 OVC065 80.6 77 89% 87 29.87 0.0
12 03:15 NE 5 10.00 Overcast SCT014 OVC070 80.6 77 89% 87 29.88 0.0
12 02:55 E 3 10.00 Overcast SCT014 OVC070 80.6 77 89% 87 29.88 0.0
12 02:35 E 3 10.00 Overcast OVC070 80.6 77 89% 87 29.89 0.0
12 02:15 NE 3 10.00 Overcast OVC070 80.6 77 89% 87 29.89 0.0
12 01:55 E 5 10.00 Overcast BKN070 OVC080 80.6 77 89% 87 29.9 0.0
12 01:35 E 5 10.00 Overcast FEW013 OVC075 80.6 77 89% 87 29.9 0.0
12 01:15 E 5 10.00 Overcast SCT014 OVC070 80.6 78.8 94% 88 29.9 0.0
12 00:55 E 7 10.00 Mostly Cloudy SCT014 SCT019 BKN070 80.6 77 89% 87 29.9 0.0
12 00:35 E 6 10.00 Mostly Cloudy SCT014 BKN018 BKN070 80.6 77 89% 87 29.9 0.0
12 00:15 SE 9 10.00 Mostly Cloudy BKN013 BKN018 BKN070 80.6 78.8 94% 88 29.9 0.0
11 23:55 E 7 10.00 Mostly Cloudy BKN014 BKN065 80.6 77 89% 87 29.9 0.0
11 23:35 SE 7 10.00 Partly Cloudy SCT015 SCT026 SCT070 80.6 77 89% 87 29.9 0.0
11 23:15 SE 8 10.00 Mostly Cloudy SCT014 SCT023 BKN027 80.6 77 89% 87 29.9 0.0
11 22:50 E 10 10.00 Mostly Cloudy SCT015 BKN022 BKN070 80.6 77 89% 87 29.89 0.0
11 22:35 E 9 10.00 Partly Cloudy FEW014 SCT065 80.6 77 89% 87 29.89 0.0
11 22:15 E 9 10.00 A Few Clouds FEW016 FEW070 80.6 77 89% 87 29.88 0.0
11 21:35 E 10 10.00 Mostly Cloudy BKN014 BKN021 BKN044 80.6 77 89% 87 29.87 0.0
11 21:15 E 9 10.00 Partly Cloudy SCT014 SCT044 80.6 77 89% 87 29.87 0.0
11 20:55 E 8 10.00 A Few Clouds FEW014 80.6 77 89% 87 29.86 0.0
11 20:35 E 9 10.00 Fair CLR 80.6 77 89% 87 29.86 0.0
11 20:15 E 8 10.00 Fair CLR 82.4 77 84% 91 29.85 0.0
11 19:55 E 7 G 13 10.00 Fair CLR 82.4 77 84% 91 29.84 0.0
11 19:35 Vrbl 7 G 14 10.00 Fair CLR 82.4 77 84% 91 29.84 0.0
11 18:55 E 8 10.00 A Few Clouds FEW014 82.4 77 84% 91 29.84 0.0
11 18:35 E 9 10.00 A Few Clouds FEW015 82.4 77 84% 91 29.84 0.0
11 18:15 E 10 G 16 10.00 Partly Cloudy SCT015 84.2 78.8 84% 96 29.83 0.0
11 17:55 E 10 G 17 10.00 A Few Clouds FEW014 84.2 78.8 84% 96 29.83 0.0
11 17:35 NE 10 10.00 Fair CLR 84.2 78.8 84% 96 29.83 0.0
11 17:15 E 12 10.00 Fair CLR 86 78.8 79% 99 29.83 0.0
11 16:55 E 9 G 16 10.00 Fair CLR 84.2 77 79% 94 29.83 0.0
11 16:35 E 12 10.00 Fair CLR 86 77 75% 97 29.84 0.0
11 16:15 E 9 10.00 Fair CLR 86 77 75% 97 29.83 0.0
11 15:55 E 10 10.00 Fair CLR 84.2 77 79% 94 29.84 0.0
11 15:35 E 12 10.00 Fair CLR 86 77 75% 97 29.84 0.0
11 15:15 E 10 G 16 10.00 Partly Cloudy FEW044 SCT070 86 77 75% 97 29.84 0.0
11 14:55 E 10 10.00 Mostly Cloudy FEW044 SCT070 BKN075 84.2 77 79% 94 29.85 0.0
11 14:35 E 9 10.00 Partly Cloudy FEW032 FEW050 SCT075 86 77 75% 97 29.85 0.0
11 14:15 E 12 10.00 Mostly Cloudy SCT031 BKN055 BKN070 86 77 75% 97 29.84 0.0
11 13:55 E 10 10.00 Partly Cloudy FEW030 SCT035 86 77 75% 97 29.84 0.0
11 13:35 SE 10 10.00 Mostly Cloudy SCT029 BKN036 BKN060 87.8 77 70% 100 29.84 0.0
11 13:15 S 7 10.00 Mostly Cloudy BKN030 BKN038 86 77 75% 97 29.84 0.0
11 12:35 NW 5 10.00 Fair CLR 87.8 75.2 66% 98 29.85 0.0
11 12:15 Vrbl 3 10.00 Fair CLR 86 75.2 70% 95 29.85 0.0
11 11:55 Calm 10.00 A Few Clouds FEW023 84.2 75.2 74% 92 29.85 0.0
11 11:35 Vrbl 5 10.00 Mostly Cloudy BKN023 84.2 75.2 74% 92 29.86 0.0
11 11:15 Vrbl 5 10.00 Mostly Cloudy BKN021 84.2 75.2 74% 92 29.86 0.0
11 10:55 Vrbl 5 10.00 Overcast OVC021 82.4 75.2 79% 89 29.86 0.0
11 10:30 N 7 10.00 Mostly Cloudy BKN018 82.4 75.2 79% 89 29.86 0.0
11 10:15 Vrbl 3 10.00 A Few Clouds FEW017 82.4 75.2 79% 89 29.86 0.0
11 09:55 N 9 10.00 A Few Clouds FEW014 82.4 75.2 79% 89 29.85 0.0
11 09:35 NW 9 10.00 Fair CLR 80.6 75.2 84% 86 29.84 0.0
11 09:15 NW 9 10.00 A Few Clouds FEW012 80.6 75.2 84% 86 29.84 0.0
11 08:55 NW 9 10.00 Fair CLR 78.8 75.2 89% 82 29.84 0.0
11 08:35 NW 7 10.00 Fair CLR 77 75.2 94% 78 29.84 0.0
11 08:15 NW 6 10.00 A Few Clouds FEW008 77 75.2 94% 78 29.84 0.0
11 07:55 W 6 10.00 Fair CLR 77 75.2 94% 78 29.84 0.0
11 07:35 NW 8 9.00 Fair CLR 75.2 75.2 100% 73 29.83 0.0
11 07:15 W 6 10.00 Fair CLR 75.2 75.2 100% 73 29.83 0.0
11 06:35 W 5 10.00 Fair CLR 75.2 75.2 100% 73 29.83 0.0
11 06:15 W 5 10.00 Fair CLR 75.2 75.2 100% 73 29.83 0.0
11 05:55 SW 6 10.00 Fair CLR 75.2 75.2 100% 73 29.82 0.0
11 05:35 W 5 10.00 A Few Clouds FEW055 75.2 75.2 100% 73 29.81 0.0
11 05:15 SW 3 10.00 Fair CLR 75.2 75.2 100% 73 29.81 0.0
11 04:55 SW 3 10.00 Fair CLR 75.2 75.2 100% 73 29.81 0.0
11 04:35 W 3 10.00 Fair CLR 75.2 73.4 94% 74 29.8 0.0
11 04:15 W 6 10.00 Fair CLR 75.2 75.2 100% 73 29.8 0.0
11 03:55 W 5 10.00 Fair CLR 75.2 75.2 100% 73 29.79 0.0
11 03:35 NW 5 10.00 Fair CLR 77 75.2 94% 78 29.79 0.0
11 03:15 W 5 10.00 Fair CLR 77 75.2 94% 78 29.79 0.0
11 02:55 W 6 10.00 Fair CLR 77 75.2 94% 78 29.78 0.0
11 02:35 NW 7 G 15 10.00 A Few Clouds FEW015 77 75.2 94% 78 29.79 0.0
11 02:15 W 12 G 22 10.00 Fair CLR 78.8 77 94% 83 29.79 0.0
11 01:55 SW 13 10.00 Fair CLR 80.6 77 89% 87 29.79 0.0
11 01:35 SW 13 10.00 Fair CLR 80.6 77 89% 87 29.79 0.0
11 01:15 SW 10 10.00 Fair CLR 80.6 77 89% 87 29.79 0.0
11 00:35 SW 10 10.00 Fair CLR 84.2 77 79% 94 29.76 0.0
11 00:15 S 9 G 15 10.00 A Few Clouds FEW003 84.2 78.8 84% 96 29.76 0.0
10 23:55 S 12 G 18 10.00 A Few Clouds FEW003 82.4 80.6 94% 94 29.76 0.0
10 23:35 S 14 G 22 10.00 Thunderstorm in Vicinity CLR 84.2 80.6 89% 98 29.77 0.0
10 23:15 S 14 G 21 10.00 Partly Cloudy SCT060 SCT070 84.2 80.6 89% 98 29.79 0.0
10 22:55 S 14 G 20 10.00 Mostly Cloudy BKN060 84.2 80.6 89% 98 29.8 0.0
10 22:35 SE 10 G 17 10.00 A Few Clouds FEW060 82.4 77 84% 91 29.79 0.0
10 22:15 SE 9 10.00 Fair CLR 82.4 75.2 79% 89 29.79 0.0
10 21:55 E 8 10.00 Fair CLR 82.4 75.2 79% 89 29.78 0.0
10 21:35 SE 8 10.00 Fair CLR 82.4 75.2 79% 89 29.77 0.0
10 21:15 SE 9 10.00 Fair CLR 82.4 73.4 74% 88 29.76 0.0
10 20:55 E 6 10.00 Fair CLR 82.4 75.2 79% 89 29.77 0.0
10 20:35 E 8 10.00 Fair CLR 82.4 75.2 79% 89 29.77 0.0
10 20:15 E 7 10.00 Fair CLR 82.4 77 84% 91 29.77 0.0
10 19:55 E 7 G 16 10.00 Fair CLR 82.4 77 84% 91 29.76 0.0
10 19:35 E 13 10.00 Fair CLR 82.4 77 84% 91 29.75 0.0
10 19:15 E 9 10.00 Fair CLR 84.2 77 79% 94 29.74 0.0
10 18:55 E 12 10.00 A Few Clouds FEW026 FEW065 FEW070 86 78.8 79% 99 29.74 0.0
10 18:35 E 6 10.00 Mostly Cloudy FEW026 BKN065 BKN075 87.8 80.6 79% 105 29.74 0.0
10 18:15 SE 9 10.00 Mostly Cloudy FEW060 BKN070 87.8 78.8 75% 102 29.73 0.0
10 17:55 SE 9 10.00 Thunderstorm in Vicinity FEW060 FEW070 87.8 80.6 79% 105 29.74 0.0
10 17:35 SE 8 10.00 Thunderstorm in Vicinity FEW065 SCT075 87.8 80.6 79% 105 29.73 0.0
Date Time (edt) Wind (mph) Vis. (mi.) Weather Sky Cond. Air Dwpt Max. Min. Relative Humidity Wind Chill (°F) Heat Index (°F) altimeter (in) sea level (mb) 1 hr 3 hr 6 hr
6 hour
Temperature (ºF) Pressure Precipitation (in)